Orbital Elements at Epoch 2459200.5 (2020-Dec-17.0) TDB
Reference: JPL 26 (heliocentric ecliptic J2000)
Element | Value | Uncertainty (1-sigma) | Units |
e | .1302976933296148 | 3.3332e-08 | |
a | 2.405561976695927 | 7.4582e-09 | au |
q | 2.092122799971019 | 7.8344e-08 | au |
i | 1.652022243300645 | 4.3884e-06 | deg |
node | 151.9093971995055 | 0.00012036 | deg |
peri | 333.8498282551885 | 0.00012189 | deg |
M | 123.1862731336693 | 1.828e-05 | deg |
tp | 2458734.181045962585 (2019-Sep-07.68104596) | 6.865e-05 | TDB |
period | 1362.772159454069 3.73 | 6.3377e-06 1.735e-08 | d yr |
n | .2641674160295564 | 1.2285e-09 | deg/d |
Q | 2.719001153420835 | 8.4299e-09 | au |
|
| | Orbit Determination Parameters
Additional Information
|